When you browse on this site, cookies collect data to enhance your experience and personalize the content and advertising you see.
Visit our Privacy Policy to learn more. By continuing to use the site, you agree to this use of cookies and data.
EN

Hourly Weather Zachereve

Today, 25 September, Friday

Time Temperature Precipitation Wind Pressure Humidity
00:00 +12°C° 0 mm 3 mps 745 mmHg 73%
01:00 +12°C° 0 mm 3 mps 745 mmHg 74%
02:00 +12°C° 0 mm 3 mps 745 mmHg 77%
03:00 +12°C° 0 mm 3 mps 745 mmHg 76%
04:00 +12°C° 0 mm 3 mps 745 mmHg 75%
05:00 +12°C° 0 mm 3 mps 745 mmHg 74%
06:00 +13°C° 0 mm 3 mps 745 mmHg 74%
07:00 +13°C° 0 mm 3 mps 744 mmHg 73%
08:00 +14°C° 0 mm 3 mps 744 mmHg 73%
09:00 +16°C° 0 mm 3 mps 744 mmHg 69%
10:00 +18°C° 0 mm 3 mps 744 mmHg 65%
11:00 +19°C° 0 mm 4 mps 744 mmHg 61%
12:00 +20°C° 0 mm 4 mps 744 mmHg 59%
13:00 +21°C° 0 mm 4 mps 744 mmHg 57%
14:00 +22°C° 0 mm 4 mps 744 mmHg 55%
15:00 +21°C° 0 mm 4 mps 744 mmHg 59%
16:00 +20°C° 0 mm 4 mps 743 mmHg 63%
17:00 +19°C° 0 mm 4 mps 743 mmHg 67%
18:00 +18°C° 0 mm 4 mps 743 mmHg 70%
19:00 +17°C° 0 mm 4 mps 743 mmHg 72%
20:00 +15°C° 0 mm 4 mps 743 mmHg 75%
21:00 +14°C° 0 mm 4 mps 743 mmHg 77%
22:00 +14°C° 0 mm 4 mps 743 mmHg 79%
23:00 +14°C° 0 mm 4 mps 743 mmHg 80%

Tomorrow, 26 September, Saturday

Time Temperature Precipitation Wind Pressure Humidity
00:00 +13°C° 0 mm 4 mps 743 mmHg 80%
01:00 +13°C° 0 mm 4 mps 743 mmHg 80%
02:00 +13°C° 0 mm 4 mps 742 mmHg 80%
03:00 +13°C° 0 mm 4 mps 742 mmHg 81%
04:00 +13°C° 0 mm 4 mps 742 mmHg 81%
05:00 +13°C° 0 mm 4 mps 742 mmHg 82%
06:00 +13°C° 0 mm 5 mps 742 mmHg 79%
07:00 +14°C° 0 mm 5 mps 742 mmHg 75%
08:00 +14°C° 0 mm 5 mps 742 mmHg 72%
09:00 +15°C° 0 mm 5 mps 742 mmHg 69%
10:00 +17°C° 0 mm 6 mps 743 mmHg 66%
11:00 +19°C° 0 mm 6 mps 743 mmHg 62%
12:00 +20°C° 0 mm 6 mps 743 mmHg 62%
13:00 +21°C° 0 mm 6 mps 743 mmHg 61%
14:00 +22°C° 0 mm 6 mps 743 mmHg 60%
15:00 +21°C° 0 mm 6 mps 743 mmHg 63%
16:00 +21°C° 0 mm 5 mps 743 mmHg 67%
17:00 +20°C° 0 mm 5 mps 744 mmHg 70%
18:00 +19°C° 0 mm 5 mps 744 mmHg 70%
19:00 +17°C° 0 mm 5 mps 744 mmHg 71%
20:00 +16°C° 0 mm 5 mps 744 mmHg 71%
21:00 +16°C° 0 mm 5 mps 744 mmHg 72%
22:00 +16°C° 0 mm 5 mps 744 mmHg 72%
23:00 +15°C° 0 mm 5 mps 745 mmHg 73%

Day after tomorrow, 27 September, Sunday

Time Temperature Precipitation Wind Pressure Humidity
00:00 +15°C° 0 mm 5 mps 745 mmHg 72%
01:00 +15°C° 0 mm 5 mps 745 mmHg 71%
02:00 +14°C° 0 mm 5 mps 745 mmHg 71%
03:00 +14°C° 0 mm 5 mps 745 mmHg 71%
04:00 +14°C° 0 mm 5 mps 745 mmHg 71%
05:00 +13°C° 0 mm 5 mps 745 mmHg 71%
06:00 +13°C° 0 mm 5 mps 745 mmHg 69%
07:00 +14°C° 0 mm 6 mps 745 mmHg 68%
08:00 +14°C° 0 mm 6 mps 745 mmHg 67%
09:00 +15°C° 0 mm 6 mps 745 mmHg 63%
10:00 +16°C° 0 mm 6 mps 745 mmHg 60%
11:00 +19°C° 0 mm 6 mps 745 mmHg 56%
12:00 +20°C° 0 mm 7 mps 745 mmHg 55%
13:00 +20°C° 0 mm 7 mps 745 mmHg 54%
14:00 +21°C° 0 mm 7 mps 745 mmHg 54%
15:00 +21°C° 0 mm 7 mps 745 mmHg 56%
16:00 +20°C° 0 mm 6 mps 745 mmHg 59%
17:00 +19°C° 0 mm 6 mps 745 mmHg 61%
18:00 +17°C° 0 mm 6 mps 745 mmHg 61%
19:00 +17°C° 0 mm 6 mps 745 mmHg 62%
20:00 +16°C° 0 mm 6 mps 746 mmHg 62%
21:00 +15°C° 0.3 mm 5 mps 746 mmHg 71%
22:00 +14°C° 0.3 mm 5 mps 746 mmHg 81%
23:00 +13°C° 0.3 mm 4 mps 746 mmHg 90%

28 September, Monday

Time Temperature Precipitation Wind Pressure Humidity
00:00 +13°C° 0.2 mm 4 mps 746 mmHg 91%
01:00 +13°C° 0.2 mm 4 mps 746 mmHg 92%
02:00 +13°C° 0.2 mm 4 mps 746 mmHg 92%
03:00 +12°C° 0.4 mm 3 mps 747 mmHg 93%
04:00 +12°C° 0.4 mm 3 mps 747 mmHg 94%
05:00 +13°C° 0.4 mm 2 mps 747 mmHg 94%
06:00 +13°C° 0.5 mm 2 mps 747 mmHg 93%
07:00 +13°C° 0.5 mm 2 mps 748 mmHg 93%
08:00 +13°C° 0.5 mm 2 mps 748 mmHg 92%
09:00 +13°C° 0.2 mm 2 mps 748 mmHg 88%
10:00 +13°C° 0.2 mm 2 mps 749 mmHg 84%
11:00 +14°C° 0.2 mm 2 mps 749 mmHg 80%
12:00 +15°C° 0 mm 2 mps 749 mmHg 74%
13:00 +16°C° 0 mm 2 mps 749 mmHg 69%
14:00 +17°C° 0 mm 2 mps 749 mmHg 63%
15:00 +16°C° 0 mm 2 mps 749 mmHg 66%
16:00 +16°C° 0 mm 1 mps 749 mmHg 68%
17:00 +15°C° 0 mm 1 mps 749 mmHg 71%
18:00 +14°C° 0 mm 1 mps 749 mmHg 74%
19:00 +13°C° 0 mm 1 mps 750 mmHg 76%
20:00 +11°C° 0 mm 1 mps 750 mmHg 79%
21:00 +11°C° 0 mm 1 mps 750 mmHg 81%
22:00 +11°C° 0 mm 1 mps 750 mmHg 82%
23:00 +10°C° 0 mm 1 mps 750 mmHg 84%

29 September, Tuesday

Time Temperature Precipitation Wind Pressure Humidity
00:00 +10°C° 0 mm 1 mps 750 mmHg 85%
01:00 +10°C° 0 mm 1 mps 750 mmHg 87%
02:00 +9°C° 0 mm 1 mps 750 mmHg 88%
03:00 +8°C° 0 mm 2 mps 750 mmHg 89%
04:00 +8°C° 0 mm 2 mps 750 mmHg 89%
05:00 +8°C° 0 mm 2 mps 750 mmHg 90%
06:00 +9°C° 0 mm 2 mps 750 mmHg 87%
07:00 +10°C° 0 mm 3 mps 750 mmHg 84%
08:00 +11°C° 0 mm 3 mps 750 mmHg 82%
09:00 +12°C° 0 mm 3 mps 750 mmHg 77%
10:00 +14°C° 0 mm 3 mps 750 mmHg 73%
11:00 +16°C° 0 mm 3 mps 750 mmHg 68%
12:00 +17°C° 0 mm 3 mps 749 mmHg 65%
13:00 +18°C° 0 mm 3 mps 749 mmHg 63%
14:00 +19°C° 0 mm 3 mps 749 mmHg 60%
15:00 +18°C° 0 mm 3 mps 749 mmHg 65%
16:00 +17°C° 0 mm 2 mps 749 mmHg 70%
17:00 +16°C° 0 mm 2 mps 749 mmHg 75%
18:00 +15°C° 0 mm 2 mps 749 mmHg 79%
19:00 +14°C° 0 mm 2 mps 749 mmHg 84%
20:00 +12°C° 0 mm 2 mps 749 mmHg 88%
21:00 +12°C° 0 mm 2 mps 749 mmHg 90%
22:00 +10°C° 0 mm 2 mps 749 mmHg 91%
23:00 +10°C° 0 mm 2 mps 749 mmHg 92%

30 September, Wednesday

Time Temperature Precipitation Wind Pressure Humidity
00:00 +9°C° 0 mm 2 mps 749 mmHg 92%
01:00 +9°C° 0 mm 2 mps 749 mmHg 92%
02:00 +9°C° 0 mm 2 mps 749 mmHg 92%
03:00 +9°C° 0 mm 3 mps 749 mmHg 93%
04:00 +8°C° 0 mm 3 mps 749 mmHg 93%
05:00 +8°C° 0 mm 3 mps 748 mmHg 93%
06:00 +9°C° 0 mm 3 mps 748 mmHg 90%
07:00 +10°C° 0 mm 4 mps 748 mmHg 88%
08:00 +10°C° 0 mm 4 mps 748 mmHg 85%
09:00 +12°C° 0 mm 4 mps 748 mmHg 80%
10:00 +13°C° 0 mm 4 mps 748 mmHg 75%
11:00 +15°C° 0 mm 4 mps 748 mmHg 71%
12:00 +15°C° 0 mm 4 mps 748 mmHg 68%
13:00 +17°C° 0 mm 4 mps 747 mmHg 66%
14:00 +18°C° 0 mm 4 mps 747 mmHg 63%
15:00 +17°C° 0 mm 4 mps 747 mmHg 67%
16:00 +15°C° 0 mm 4 mps 747 mmHg 71%
17:00 +16°C° 0 mm 3 mps 747 mmHg 75%
18:00 +14°C° 0 mm 3 mps 747 mmHg 79%
19:00 +13°C° 0 mm 3 mps 747 mmHg 83%
20:00 +12°C° 0 mm 3 mps 747 mmHg 87%
21:00 +11°C° 0 mm 3 mps 747 mmHg 86%
22:00 +11°C° 0 mm 3 mps 747 mmHg 85%
23:00 +11°C° 0 mm 3 mps 747 mmHg 83%
Show more